Time,TemperatureF,DewpointF,PressureIn,WindDirection,WindDirectionDegrees,WindSpeedMPH,WindSpeedGustMPH,Humidity,HourlyPrecipIn,Conditions,Clouds,dailyrainin,SoftwareType,DateUTC
2013-05-17 00:03:00,70.1,56.9,29.81,SSE,167,3.0,3.0,63,0.00,OVC,OVC,0.00,WeatherDisplay:10.37,2013-05-17 05:03:00,
2013-05-17 00:08:00,69.9,57.2,29.81,SSE,157,1.2,1.3,64,0.00,OVC,OVC,0.00,WeatherDisplay:10.37,2013-05-17 05:08:00,
2013-05-17 00:13:00,69.7,57.0,29.81,South,171,4.0,4.0,64,0.00,OVC,OVC,0.00,WeatherDisplay:10.37,2013-05-17 05:13:00,
2013-05-17 00:18:00,69.5,57.2,29.81,SSE,155,3.5,3.5,65,0.00,OVC,OVC,0.00,WeatherDisplay:10.37,2013-05-17 05:18:00,
2013-05-17 00:24:00,69.3,57.0,29.81,SE,146,3.5,3.5,65,0.00,OVC,OVC,0.00,WeatherDisplay:10.37,2013-05-17 05:24:00,
2013-05-17 00:29:00,69.0,57.2,29.81,South,180,3.5,3.5,66,0.00,OVC,OVC,0.00,WeatherDisplay:10.37,2013-05-17 05:29:00,
2013-05-17 00:34:00,68.8,57.0,29.81,South,175,3.5,3.5,66,0.00,OVC,OVC,0.00,WeatherDisplay:10.37,2013-05-17 05:34:00,
2013-05-17 00:39:00,68.6,57.2,29.81,South,175,3.5,3.5,67,0.00,OVC,OVC,0.00,WeatherDisplay:10.37,2013-05-17 05:39:00,
2013-05-17 00:44:00,68.4,57.4,29.81,South,175,2.3,2.3,68,0.00,OVC,OVC,0.00,WeatherDisplay:10.37,2013-05-17 05:44:00,
2013-05-17 00:49:00,68.2,57.2,29.81,South,175,2.3,2.3,68,0.00,OVC,OVC,0.00,WeatherDisplay:10.37,2013-05-17 05:49:00,
2013-05-17 00:54:00,68.0,57.4,29.81,South,175,3.5,3.5,69,0.00,OVC,OVC,0.00,WeatherDisplay:10.37,2013-05-17 05:54:00,
2013-05-17 00:59:00,67.8,57.3,29.81,South,169,1.0,1.0,69,0.00,OVC,OVC,0.00,WeatherDisplay:10.37,2013-05-17 05:59:00,
2013-05-17 01:05:00,67.7,57.6,29.81,SSE,168,4.0,4.0,70,0.00,OVC,OVC,0.00,WeatherDisplay:10.37,2013-05-17 06:05:00,
2013-05-17 01:10:00,67.6,57.9,29.81,SSE,159,3.5,3.5,71,0.00,OVC,OVC,0.00,WeatherDisplay:10.37,2013-05-17 06:10:00,
2013-05-17 01:15:00,67.5,57.8,29.81,South,171,3.5,3.5,71,0.00,OVC,OVC,0.00,WeatherDisplay:10.37,2013-05-17 06:15:00,
2013-05-17 01:20:00,67.4,58.1,29.82,South,171,3.5,3.5,72,0.00,OVC,OVC,0.00,WeatherDisplay:10.37,2013-05-17 06:20:00,
2013-05-17 01:25:00,67.3,58.0,29.82,South,170,2.3,2.3,72,0.00,OVC,OVC,0.00,WeatherDisplay:10.37,2013-05-17 06:25:00,
2013-05-17 01:30:00,67.3,58.0,29.82,South,174,4.6,4.6,72,0.00,OVC,OVC,0.00,WeatherDisplay:10.37,2013-05-17 06:30:00,
2013-05-17 01:35:00,67.2,58.2,29.82,South,174,2.0,2.0,73,0.00,OVC,OVC,0.00,WeatherDisplay:10.37,2013-05-17 06:35:00,
2013-05-17 01:41:00,67.2,58.2,29.82,South,174,0.0,0.0,73,0.00,OVC,OVC,0.00,WeatherDisplay:10.37,2013-05-17 06:41:00,
2013-05-17 01:46:00,67.1,58.2,29.82,South,171,3.0,3.0,73,0.00,OVC,OVC,0.00,WeatherDisplay:10.37,2013-05-17 06:46:00,
2013-05-17 01:51:00,67.0,58.1,29.82,South,170,2.3,2.3,73,0.00,OVC,OVC,0.00,WeatherDisplay:10.37,2013-05-17 06:51:00,
2013-05-17 01:56:00,66.9,58.3,29.82,SSE,160,3.5,3.5,74,0.00,OVC,OVC,0.00,WeatherDisplay:10.37,2013-05-17 06:56:00,
2013-05-17 02:01:00,66.8,58.2,29.82,South,179,0.0,0.0,74,0.00,OVC,OVC,0.00,WeatherDisplay:10.37,2013-05-17 07:01:00,
2013-05-17 02:06:00,66.8,58.2,29.82,South,178,2.0,0.0,74,0.00,OVC,OVC,0.00,WeatherDisplay:10.37,2013-05-17 07:06:00,
2013-05-17 02:12:00,66.7,58.1,29.82,South,178,2.3,2.3,74,0.00,OVC,OVC,0.00,WeatherDisplay:10.37,2013-05-17 07:12:00,
2013-05-17 02:17:00,66.6,58.1,29.82,South,178,0.0,0.0,74,0.00,OVC,OVC,0.00,WeatherDisplay:10.37,2013-05-17 07:17:00,
2013-05-17 02:22:00,66.5,58.0,29.82,South,178,0.0,0.0,74,0.00,OVC,OVC,0.00,WeatherDisplay:10.37,2013-05-17 07:22:00,
2013-05-17 02:27:00,66.4,57.9,29.81,South,178,1.2,1.2,74,0.00,OVC,OVC,0.00,WeatherDisplay:10.37,2013-05-17 07:27:00,
2013-05-17 02:32:00,66.2,58.0,29.81,South,178,1.2,1.2,75,0.00,OVC,OVC,0.00,WeatherDisplay:10.37,2013-05-17 07:32:00,
2013-05-17 02:37:00,66.1,57.9,29.82,South,178,1.0,1.0,75,0.00,OVC,OVC,0.00,WeatherDisplay:10.37,2013-05-17 07:37:00,
2013-05-17 02:42:00,65.9,57.7,29.82,South,177,3.0,3.0,75,0.00,OVC,OVC,0.00,WeatherDisplay:10.37,2013-05-17 07:42:00,
2013-05-17 02:48:00,65.9,57.7,29.82,South,177,2.3,2.3,75,0.00,OVC,OVC,0.00,WeatherDisplay:10.37,2013-05-17 07:48:00,
2013-05-17 02:53:00,65.8,58.0,29.82,South,178,2.3,2.3,76,0.00,OVC,OVC,0.00,WeatherDisplay:10.37,2013-05-17 07:53:00,
2013-05-17 02:58:00,65.8,58.0,29.82,South,172,3.5,3.5,76,0.00,OVC,OVC,0.00,WeatherDisplay:10.37,2013-05-17 07:58:00,
2013-05-17 03:03:00,65.8,58.0,29.82,South,171,3.5,3.5,76,0.00,OVC,OVC,0.00,WeatherDisplay:10.37,2013-05-17 08:03:00,
2013-05-17 03:08:00,65.8,58.0,29.83,South,171,1.0,1.0,76,0.00,OVC,OVC,0.00,WeatherDisplay:10.37,2013-05-17 08:08:00,
2013-05-17 03:14:00,65.7,57.9,29.83,SSE,157,3.0,3.0,76,0.00,OVC,OVC,0.00,WeatherDisplay:10.37,2013-05-17 08:14:00,
2013-05-17 03:19:00,65.6,57.8,29.83,SSE,157,2.3,2.3,76,0.00,OVC,OVC,0.00,WeatherDisplay:10.37,2013-05-17 08:19:00,
2013-05-17 03:24:00,65.5,57.7,29.83,SSE,157,3.5,3.5,76,0.00,OVC,OVC,0.00,WeatherDisplay:10.37,2013-05-17 08:24:00,
2013-05-17 03:29:00,65.4,57.6,29.83,SSE,161,2.3,2.3,76,0.00,OVC,OVC,0.00,WeatherDisplay:10.37,2013-05-17 08:29:00,
2013-05-17 03:34:00,65.3,57.9,29.83,SSE,161,3.5,3.5,77,0.00,OVC,OVC,0.00,WeatherDisplay:10.37,2013-05-17 08:34:00,
2013-05-17 03:40:00,65.1,57.7,29.83,SSE,161,1.0,1.0,77,0.00,OVC,OVC,0.00,WeatherDisplay:10.37,2013-05-17 08:40:00,
2013-05-17 03:45:00,65.0,57.6,29.83,SSE,161,2.3,2.3,77,0.00,OVC,OVC,0.00,WeatherDisplay:10.37,2013-05-17 08:45:00,
2013-05-17 03:50:00,64.9,57.5,29.83,SSE,161,0.0,0.0,77,0.00,OVC,OVC,0.00,WeatherDisplay:10.37,2013-05-17 08:50:00,
2013-05-17 03:55:00,64.8,57.4,29.83,SSE,161,0.0,0.0,77,0.00,OVC,OVC,0.00,WeatherDisplay:10.37,2013-05-17 08:55:00,
2013-05-17 04:01:00,64.6,57.6,29.83,SSE,161,0.0,0.0,78,0.00,OVC,OVC,0.00,WeatherDisplay:10.37,2013-05-17 09:01:00,
2013-05-17 04:06:00,64.3,57.3,29.84,SSE,161,0.0,0.0,78,0.00,OVC,OVC,0.00,WeatherDisplay:10.37,2013-05-17 09:06:00,
2013-05-17 04:11:00,64.2,57.2,29.84,SSE,161,2.3,2.3,78,0.00,OVC,OVC,0.00,WeatherDisplay:10.37,2013-05-17 09:11:00,
2013-05-17 04:16:00,64.1,57.1,29.84,SSE,153,4.0,4.0,78,0.00,OVC,OVC,0.00,WeatherDisplay:10.37,2013-05-17 09:16:00,
2013-05-17 04:21:00,64.1,57.5,29.84,SSE,153,3.5,3.5,79,0.00,OVC,OVC,0.00,WeatherDisplay:10.37,2013-05-17 09:21:00,
2013-05-17 04:27:00,64.1,57.5,29.84,SSW,194,4.6,4.6,79,0.00,OVC,OVC,0.00,WeatherDisplay:10.37,2013-05-17 09:27:00,
2013-05-17 04:32:00,64.0,57.4,29.84,SSE,167,2.3,2.3,79,0.00,OVC,OVC,0.00,WeatherDisplay:10.37,2013-05-17 09:32:00,
2013-05-17 04:37:00,64.1,57.8,29.84,SSE,158,5.8,5.8,80,0.00,OVC,OVC,0.00,WeatherDisplay:10.37,2013-05-17 09:37:00,
2013-05-17 04:42:00,64.1,57.8,29.84,South,173,3.5,3.5,80,0.00,OVC,OVC,0.00,WeatherDisplay:10.37,2013-05-17 09:42:00,
2013-05-17 04:47:00,64.2,57.9,29.85,SSE,155,3.5,3.5,80,0.00,OVC,OVC,0.00,WeatherDisplay:10.37,2013-05-17 09:47:00,
2013-05-17 04:53:00,64.3,58.0,29.85,South,169,3.5,3.5,80,0.00,OVC,OVC,0.00,WeatherDisplay:10.37,2013-05-17 09:53:00,
2013-05-17 04:58:00,64.4,57.7,29.85,South,170,1.2,1.2,79,0.00,OVC,OVC,0.00,WeatherDisplay:10.37,2013-05-17 09:58:00,
2013-05-17 05:03:00,64.4,57.7,29.85,South,170,2.3,2.3,79,0.00,OVC,OVC,0.00,WeatherDisplay:10.37,2013-05-17 10:03:00,
2013-05-17 05:08:00,64.3,57.6,29.85,South,171,1.2,1.2,79,0.00,OVC,OVC,0.00,WeatherDisplay:10.37,2013-05-17 10:08:00,
2013-05-17 05:14:00,64.3,57.6,29.85,South,169,2.3,2.3,79,0.00,OVC,OVC,0.00,WeatherDisplay:10.37,2013-05-17 10:14:00,
2013-05-17 05:19:00,64.3,57.6,29.85,South,169,2.3,2.3,79,0.00,OVC,OVC,0.00,WeatherDisplay:10.37,2013-05-17 10:19:00,
2013-05-17 05:24:00,64.2,57.5,29.85,SSE,164,2.3,2.3,79,0.00,OVC,OVC,0.00,WeatherDisplay:10.37,2013-05-17 10:24:00,
2013-05-17 05:29:00,64.1,57.5,29.85,SSE,165,2.3,2.3,79,0.00,OVC,OVC,0.00,WeatherDisplay:10.37,2013-05-17 10:29:00,
2013-05-17 05:34:00,63.9,57.3,29.85,SSE,165,3.5,3.5,79,0.00,OVC,OVC,0.00,WeatherDisplay:10.37,2013-05-17 10:34:00,
2013-05-17 05:39:00,63.8,57.2,29.86,SSE,165,1.2,1.2,79,0.00,OVC,OVC,0.00,WeatherDisplay:10.37,2013-05-17 10:39:00,
2013-05-17 05:45:00,63.7,57.1,29.85,SSE,148,4.6,4.6,79,0.00,CLR,CLR,0.00,WeatherDisplay:10.37,2013-05-17 10:45:00,
2013-05-17 05:50:00,63.6,57.3,29.85,SSE,148,2.3,2.3,80,0.00,OVC,OVC,0.00,WeatherDisplay:10.37,2013-05-17 10:50:00,
2013-05-17 05:55:00,63.6,57.3,29.85,SSE,153,3.5,3.5,80,0.00,OVC,OVC,0.00,WeatherDisplay:10.37,2013-05-17 10:55:00,
2013-05-17 06:01:00,63.6,57.3,29.86,SSE,153,0.0,0.0,80,0.00,OVC,OVC,0.00,WeatherDisplay:10.37,2013-05-17 11:01:00,
2013-05-17 06:06:00,63.6,57.3,29.86,SSE,161,1.2,0.0,80,0.00,OVC,OVC,0.00,WeatherDisplay:10.37,2013-05-17 11:06:00,
2013-05-17 06:11:00,63.5,57.2,29.86,SSE,165,2.3,2.3,80,0.00,OVC,OVC,0.00,WeatherDisplay:10.37,2013-05-17 11:11:00,
2013-05-17 06:16:00,63.5,57.2,29.86,SSE,161,3.5,3.5,80,0.00,OVC,OVC,0.00,WeatherDisplay:10.37,2013-05-17 11:16:00,
2013-05-17 06:22:00,63.4,57.1,29.86,SSE,163,3.5,3.5,80,0.00,OVC,OVC,0.00,WeatherDisplay:10.37,2013-05-17 11:22:00,
2013-05-17 06:27:00,63.4,57.1,29.86,SSE,161,3.5,3.5,80,0.00,OVC,OVC,0.00,WeatherDisplay:10.37,2013-05-17 11:27:00,
2013-05-17 06:32:00,63.4,57.1,29.87,SSE,161,1.2,0.0,80,0.00,OVC,OVC,0.00,WeatherDisplay:10.37,2013-05-17 11:32:00,
2013-05-17 06:38:00,63.4,57.1,29.87,SSE,160,3.5,3.5,80,0.00,OVC,OVC,0.00,WeatherDisplay:10.37,2013-05-17 11:38:00,
2013-05-17 06:43:00,63.5,57.2,29.87,SSE,148,5.8,5.8,80,0.00,OVC,OVC,0.00,WeatherDisplay:10.37,2013-05-17 11:43:00,
2013-05-17 06:48:00,63.6,57.3,29.87,South,171,3.5,3.5,80,0.00,OVC,OVC,0.00,WeatherDisplay:10.37,2013-05-17 11:48:00,
2013-05-17 06:53:00,63.7,57.4,29.87,SSE,163,3.5,3.5,80,0.00,OVC,OVC,0.00,WeatherDisplay:10.37,2013-05-17 11:53:00,
2013-05-17 06:58:00,63.8,57.5,29.87,SSE,164,2.3,2.3,80,0.00,OVC,OVC,0.00,WeatherDisplay:10.37,2013-05-17 11:58:00,
2013-05-17 07:04:00,63.9,57.6,29.87,South,173,3.5,3.5,80,0.00,OVC,OVC,0.00,WeatherDisplay:10.37,2013-05-17 12:04:00,
2013-05-17 07:09:00,64.1,57.8,29.87,SSE,167,3.5,3.5,80,0.00,OVC,OVC,0.00,WeatherDisplay:10.37,2013-05-17 12:09:00,
2013-05-17 07:14:00,64.4,58.1,29.87,SSE,162,3.5,3.5,80,0.00,OVC,OVC,0.00,WeatherDisplay:10.37,2013-05-17 12:14:00,
2013-05-17 07:19:00,64.8,58.1,29.87,SSE,153,3.5,3.5,79,0.00,OVC,OVC,0.00,WeatherDisplay:10.37,2013-05-17 12:19:00,
2013-05-17 07:24:00,65.2,58.2,29.88,SSE,153,0.0,0.0,78,0.00,OVC,OVC,0.00,WeatherDisplay:10.37,2013-05-17 12:24:00,
2013-05-17 07:29:00,65.5,58.5,29.88,South,180,6.9,6.9,78,0.00,OVC,OVC,0.00,WeatherDisplay:10.37,2013-05-17 12:29:00,
2013-05-17 07:35:00,65.8,58.7,29.88,SSE,168,3.5,3.5,78,0.00,OVC,OVC,0.00,WeatherDisplay:10.37,2013-05-17 12:35:00,
2013-05-17 07:40:00,65.9,58.1,29.88,SSE,167,3.5,3.5,76,0.00,OVC,OVC,0.00,WeatherDisplay:10.37,2013-05-17 12:40:00,
2013-05-17 07:45:00,66.1,58.3,29.88,South,188,1.2,1.2,76,0.00,OVC,OVC,0.00,WeatherDisplay:10.37,2013-05-17 12:45:00,
2013-05-17 07:50:00,66.4,58.6,29.88,SSE,147,4.0,4.0,76,0.00,OVC,OVC,0.00,WeatherDisplay:10.37,2013-05-17 12:50:00,
2013-05-17 07:56:00,66.7,58.5,29.88,South,169,4.6,4.6,75,0.00,OVC,OVC,0.00,WeatherDisplay:10.37,2013-05-17 12:56:00,
2013-05-17 08:01:00,66.9,58.7,29.88,SSE,148,3.5,3.5,75,0.00,OVC,OVC,0.00,WeatherDisplay:10.37,2013-05-17 13:01:00,
2013-05-17 08:06:00,67.2,58.6,29.89,SE,132,3.5,3.5,74,0.00,OVC,OVC,0.00,WeatherDisplay:10.37,2013-05-17 13:06:00,
2013-05-17 08:11:00,67.5,58.5,29.89,SSE,160,4.6,4.6,73,0.00,OVC,OVC,0.00,WeatherDisplay:10.37,2013-05-17 13:11:00,
2013-05-17 08:17:00,67.8,58.8,29.88,SE,143,7.0,7.0,73,0.00,OVC,OVC,0.00,WeatherDisplay:10.37,2013-05-17 13:17:00,
2013-05-17 08:22:00,68.1,58.7,29.89,South,178,4.6,4.6,72,0.00,OVC,OVC,0.00,WeatherDisplay:10.37,2013-05-17 13:22:00,
2013-05-17 08:27:00,68.5,59.1,29.88,South,173,5.0,5.0,72,0.00,OVC,OVC,0.00,WeatherDisplay:10.37,2013-05-17 13:27:00,
2013-05-17 08:32:00,68.9,59.1,29.89,SSE,164,6.9,6.9,71,0.00,OVC,OVC,0.00,WeatherDisplay:10.37,2013-05-17 13:32:00,
2013-05-17 08:37:00,69.2,59.0,29.89,South,180,5.8,5.8,70,0.00,OVC,OVC,0.00,WeatherDisplay:10.37,2013-05-17 13:37:00,
2013-05-17 08:43:00,69.6,59.4,29.89,South,171,5.0,5.0,70,0.00,OVC,OVC,0.00,WeatherDisplay:10.37,2013-05-17 13:43:00,
2013-05-17 08:48:00,70.0,59.4,29.89,SSE,158,5.8,5.8,69,0.00,OVC,OVC,0.00,WeatherDisplay:10.37,2013-05-17 13:48:00,
2013-05-17 08:53:00,70.4,59.3,29.89,SSE,165,5.0,5.0,68,0.00,OVC,OVC,0.00,WeatherDisplay:10.37,2013-05-17 13:53:00,
2013-05-17 08:58:00,70.7,59.2,29.89,SSE,160,5.8,5.8,67,0.00,OVC,OVC,0.00,WeatherDisplay:10.37,2013-05-17 13:58:00,
2013-05-17 09:03:00,71.0,59.5,29.89,SSE,153,2.3,2.3,67,0.00,OVC,OVC,0.00,WeatherDisplay:10.37,2013-05-17 14:03:00,
2013-05-17 09:08:00,71.4,59.4,29.89,SSE,147,6.0,6.0,66,0.00,OVC,OVC,0.00,WeatherDisplay:10.37,2013-05-17 14:08:00,
2013-05-17 09:13:00,71.8,59.8,29.89,SSE,157,6.9,6.9,66,0.00,OVC,OVC,0.00,WeatherDisplay:10.37,2013-05-17 14:13:00,
2013-05-17 09:19:00,72.3,59.9,29.89,SSE,163,4.6,4.6,65,0.00,OVC,OVC,0.00,WeatherDisplay:10.37,2013-05-17 14:19:00,
2013-05-17 09:24:00,72.9,60.0,29.89,South,178,6.0,6.0,64,0.00,OVC,OVC,0.00,WeatherDisplay:10.37,2013-05-17 14:24:00,
2013-05-17 09:29:00,73.4,60.0,29.89,SSE,158,5.8,5.8,63,0.00,OVC,OVC,0.00,WeatherDisplay:10.37,2013-05-17 14:29:00,
2013-05-17 09:34:00,73.7,59.9,29.89,SE,140,9.2,9.2,62,0.00,OVC,OVC,0.00,WeatherDisplay:10.37,2013-05-17 14:34:00,
2013-05-17 09:39:00,74.2,60.3,29.89,SSE,161,5.8,5.8,62,0.00,OVC,OVC,0.00,WeatherDisplay:10.37,2013-05-17 14:39:00,
2013-05-17 09:44:00,74.8,60.4,29.89,South,170,7.0,7.0,61,0.00,OVC,OVC,0.00,WeatherDisplay:10.37,2013-05-17 14:44:00,
2013-05-17 09:49:00,75.6,60.3,29.89,SSE,158,8.1,8.1,59,0.00,OVC,OVC,0.00,WeatherDisplay:10.37,2013-05-17 14:49:00,
2013-05-17 09:54:00,76.3,60.9,29.89,SSE,161,5.8,5.8,59,0.00,OVC,OVC,0.00,WeatherDisplay:10.37,2013-05-17 14:54:00,
2013-05-17 10:00:00,77.1,60.7,29.88,SSW,201,3.5,3.5,57,0.00,OVC,OVC,0.00,WeatherDisplay:10.37,2013-05-17 15:00:00,
2013-05-17 10:05:00,77.4,60.0,29.88,SE,142,5.8,5.8,55,0.00,OVC,OVC,0.00,WeatherDisplay:10.37,2013-05-17 15:05:00,
2013-05-17 10:10:00,77.5,60.6,29.88,SSE,155,3.5,3.5,56,0.00,OVC,OVC,0.00,WeatherDisplay:10.37,2013-05-17 15:10:00,
2013-05-17 10:15:00,77.8,60.3,29.88,South,178,8.1,8.1,55,0.00,OVC,OVC,0.00,WeatherDisplay:10.37,2013-05-17 15:15:00,
2013-05-17 10:21:00,78.3,61.3,29.88,SE,134,3.5,3.5,56,0.00,OVC,OVC,0.00,WeatherDisplay:10.37,2013-05-17 15:21:00,
2013-05-17 10:26:00,78.7,60.1,29.88,SE,128,4.6,4.6,53,0.00,OVC,OVC,0.00,WeatherDisplay:10.37,2013-05-17 15:26:00,
2013-05-17 10:31:00,78.7,59.6,29.88,SSE,155,12.7,12.7,52,0.00,OVC,OVC,0.00,WeatherDisplay:10.37,2013-05-17 15:31:00,
2013-05-17 10:36:00,78.9,59.2,29.88,ESE,123,13.8,13.8,51,0.00,OVC,OVC,0.00,WeatherDisplay:10.37,2013-05-17 15:36:00,
2013-05-17 10:42:00,78.7,59.6,29.88,SSE,163,11.5,11.5,52,0.00,OVC,OVC,0.00,WeatherDisplay:10.37,2013-05-17 15:42:00,
2013-05-17 10:47:00,78.8,60.2,29.88,South,171,4.6,4.6,53,0.00,OVC,OVC,0.00,WeatherDisplay:10.37,2013-05-17 15:47:00,
2013-05-17 10:52:00,79.3,60.1,29.89,SSE,148,4.6,4.6,52,0.00,OVC,OVC,0.00,WeatherDisplay:10.37,2013-05-17 15:52:00,
2013-05-17 10:57:00,79.3,59.0,29.89,SSE,164,8.1,8.1,50,0.00,OVC,OVC,0.00,WeatherDisplay:10.37,2013-05-17 15:57:00,
2013-05-17 11:02:00,79.4,59.1,29.89,South,176,8.1,8.1,50,0.00,OVC,OVC,0.00,WeatherDisplay:10.37,2013-05-17 16:02:00,
2013-05-17 11:08:00,79.2,58.4,29.89,South,180,11.5,11.5,49,0.00,OVC,OVC,0.00,WeatherDisplay:10.37,2013-05-17 16:08:00,
2013-05-17 11:13:00,79.2,59.0,29.89,SSE,163,8.1,8.1,50,0.00,OVC,OVC,0.00,WeatherDisplay:10.37,2013-05-17 16:13:00,
2013-05-17 11:18:00,79.4,58.6,29.89,SSE,161,9.0,9.0,49,0.00,OVC,OVC,0.00,WeatherDisplay:10.37,2013-05-17 16:18:00,
2013-05-17 11:23:00,79.9,58.5,29.89,South,171,6.9,6.9,48,0.00,OVC,OVC,0.00,WeatherDisplay:10.37,2013-05-17 16:23:00,
2013-05-17 11:29:00,79.8,58.9,29.89,SSE,154,4.6,4.6,49,0.00,OVC,OVC,0.00,WeatherDisplay:10.37,2013-05-17 16:29:00,
2013-05-17 11:34:00,79.3,58.5,29.89,SSE,164,3.5,3.5,49,0.00,OVC,OVC,0.00,WeatherDisplay:10.37,2013-05-17 16:34:00,
2013-05-17 11:39:00,79.5,58.1,29.89,South,174,9.2,9.2,48,0.00,OVC,OVC,0.00,WeatherDisplay:10.37,2013-05-17 16:39:00,
2013-05-17 11:44:00,80.1,58.0,29.89,South,191,6.9,6.9,47,0.00,OVC,OVC,0.00,WeatherDisplay:10.37,2013-05-17 16:44:00,
2013-05-17 11:50:00,80.4,58.3,29.89,SSE,153,10.4,10.4,47,0.00,OVC,OVC,0.00,WeatherDisplay:10.37,2013-05-17 16:50:00,
2013-05-17 11:55:00,80.5,57.2,29.89,SE,144,9.2,9.2,45,0.00,CLR,CLR,0.00,WeatherDisplay:10.37,2013-05-17 16:55:00,
2013-05-17 12:00:00,80.3,57.6,29.89,SSE,165,4.6,4.6,46,0.00,OVC,OVC,0.00,WeatherDisplay:10.37,2013-05-17 17:00:00,
2013-05-17 12:05:00,80.6,57.9,29.89,South,177,6.9,6.9,46,0.00,OVC,OVC,0.00,WeatherDisplay:10.37,2013-05-17 17:05:00,
2013-05-17 12:10:00,81.0,57.7,29.89,SE,146,6.9,6.9,45,0.00,OVC,OVC,0.00,WeatherDisplay:10.37,2013-05-17 17:10:00,
2013-05-17 12:15:00,81.4,57.4,29.89,SSE,155,6.0,6.0,44,0.00,OVC,OVC,0.00,WeatherDisplay:10.37,2013-05-17 17:15:00,
2013-05-17 12:20:00,81.5,58.1,29.89,SSE,158,3.5,3.5,45,0.00,OVC,OVC,0.00,WeatherDisplay:10.37,2013-05-17 17:20:00,
2013-05-17 12:25:00,82.0,57.9,29.89,SSE,167,10.4,10.4,44,0.00,OVC,OVC,0.00,WeatherDisplay:10.37,2013-05-17 17:25:00,
2013-05-17 12:31:00,82.7,57.9,29.88,SE,132,7.0,7.0,43,0.00,OVC,OVC,0.00,WeatherDisplay:10.37,2013-05-17 17:31:00,
2013-05-17 12:36:00,82.4,57.7,29.88,SE,130,15.0,15.0,43,0.00,OVC,OVC,0.00,WeatherDisplay:10.37,2013-05-17 17:36:00,
2013-05-17 12:41:00,81.4,57.4,29.88,South,182,11.5,11.5,44,0.00,OVC,OVC,0.00,WeatherDisplay:10.37,2013-05-17 17:41:00,
2013-05-17 12:47:00,81.3,57.9,29.88,ESE,121,11.5,11.5,45,0.00,OVC,OVC,0.00,WeatherDisplay:10.37,2013-05-17 17:47:00,
2013-05-17 12:52:00,80.9,57.6,29.88,SE,146,3.5,3.5,45,0.00,OVC,OVC,0.00,WeatherDisplay:10.37,2013-05-17 17:52:00,
2013-05-17 12:57:00,80.5,58.4,29.88,ESE,112,5.8,5.8,47,0.00,OVC,OVC,0.00,WeatherDisplay:10.37,2013-05-17 17:57:00,
2013-05-17 13:02:00,80.8,58.7,29.88,SE,143,3.5,3.5,47,0.00,OVC,OVC,0.00,WeatherDisplay:10.37,2013-05-17 18:02:00,
2013-05-17 13:08:00,81.1,57.7,29.88,SE,144,5.8,5.8,45,0.00,OVC,OVC,0.00,WeatherDisplay:10.37,2013-05-17 18:08:00,
2013-05-17 13:13:00,81.5,57.5,29.88,SSE,157,3.5,3.5,44,0.00,OVC,OVC,0.00,WeatherDisplay:10.37,2013-05-17 18:13:00,
2013-05-17 13:18:00,82.0,58.6,29.88,SE,146,7.0,7.0,45,0.00,OVC,OVC,0.00,WeatherDisplay:10.37,2013-05-17 18:18:00,
2013-05-17 13:23:00,83.0,58.2,29.87,SSE,154,3.5,3.5,43,0.00,OVC,OVC,0.00,WeatherDisplay:10.37,2013-05-17 18:23:00,
2013-05-17 13:29:00,82.7,57.3,29.87,SSE,150,5.8,5.8,42,0.00,OVC,OVC,0.00,WeatherDisplay:10.37,2013-05-17 18:29:00,
2013-05-17 13:34:00,82.4,57.0,29.87,SE,145,5.8,5.8,42,0.00,OVC,OVC,0.00,WeatherDisplay:10.37,2013-05-17 18:34:00,
2013-05-17 13:39:00,81.7,57.0,29.87,SSE,150,2.3,2.3,43,0.00,OVC,OVC,0.00,WeatherDisplay:10.37,2013-05-17 18:39:00,
2013-05-17 13:44:00,81.1,57.1,29.87,SSE,150,1.0,1.0,44,0.00,OVC,OVC,0.00,WeatherDisplay:10.37,2013-05-17 18:44:00,
2013-05-17 13:49:00,80.5,56.6,29.87,SSE,161,4.0,4.0,44,0.00,OVC,OVC,0.00,WeatherDisplay:10.37,2013-05-17 18:49:00,
2013-05-17 13:55:00,80.3,56.4,29.88,SSE,150,3.5,3.5,44,0.00,OVC,OVC,0.00,WeatherDisplay:10.37,2013-05-17 18:55:00,
2013-05-17 14:00:00,80.2,57.5,29.88,SSE,153,2.3,2.3,46,0.00,OVC,OVC,0.00,WeatherDisplay:10.37,2013-05-17 19:00:00,
2013-05-17 14:05:00,80.1,56.8,29.87,SE,139,9.2,9.2,45,0.00,OVC,OVC,0.00,WeatherDisplay:10.37,2013-05-17 19:05:00,
2013-05-17 14:10:00,80.3,56.4,29.88,SSE,148,11.5,11.5,44,0.00,OVC,OVC,0.00,WeatherDisplay:10.37,2013-05-17 19:10:00,
2013-05-17 14:16:00,80.9,57.6,29.87,SSE,168,3.0,3.0,45,0.00,OVC,OVC,0.00,WeatherDisplay:10.37,2013-05-17 19:16:00,
2013-05-17 14:21:00,81.3,57.3,29.87,SSE,157,4.0,4.0,44,0.00,OVC,OVC,0.00,WeatherDisplay:10.37,2013-05-17 19:21:00,
2013-05-17 14:26:00,81.9,57.2,29.87,SSE,153,3.5,3.5,43,0.00,OVC,OVC,0.00,WeatherDisplay:10.37,2013-05-17 19:26:00,
2013-05-17 14:31:00,82.8,56.7,29.87,SE,144,5.8,5.8,41,0.00,OVC,OVC,0.00,WeatherDisplay:10.37,2013-05-17 19:31:00,
2013-05-17 14:37:00,83.2,57.1,29.87,East,84,5.8,5.8,41,0.00,OVC,OVC,0.00,WeatherDisplay:10.37,2013-05-17 19:37:00,
2013-05-17 14:42:00,83.0,56.2,29.87,SSE,161,0.0,0.0,40,0.00,OVC,OVC,0.00,WeatherDisplay:10.37,2013-05-17 19:42:00,
2013-05-17 14:47:00,83.5,56.6,29.87,SE,132,6.9,6.9,40,0.00,OVC,OVC,0.00,WeatherDisplay:10.37,2013-05-17 19:47:00,
2013-05-17 14:52:00,83.9,56.3,29.87,SSE,150,0.0,0.0,39,0.00,OVC,OVC,0.00,WeatherDisplay:10.37,2013-05-17 19:52:00,
2013-05-17 14:57:00,84.6,56.9,29.87,SSE,159,6.9,6.9,39,0.00,OVC,OVC,0.00,WeatherDisplay:10.37,2013-05-17 19:57:00,
2013-05-17 15:02:00,85.0,55.8,29.86,ESE,111,5.8,5.8,37,0.00,OVC,OVC,0.00,WeatherDisplay:10.37,2013-05-17 20:02:00,
2013-05-17 15:08:00,84.8,55.6,29.86,ESE,121,6.9,6.9,37,0.00,OVC,OVC,0.00,WeatherDisplay:10.37,2013-05-17 20:08:00,
2013-05-17 15:13:00,85.0,55.8,29.86,South,185,9.2,9.2,37,0.00,OVC,OVC,0.00,WeatherDisplay:10.37,2013-05-17 20:13:00,
2013-05-17 15:18:00,85.0,54.3,29.87,SSE,166,9.2,9.2,35,0.00,OVC,OVC,0.00,WeatherDisplay:10.37,2013-05-17 20:18:00,
2013-05-17 15:23:00,85.0,54.3,29.86,SSE,148,10.4,10.4,35,0.00,OVC,OVC,0.00,WeatherDisplay:10.37,2013-05-17 20:23:00,
2013-05-17 15:28:00,84.7,54.8,29.86,SSE,167,3.5,3.5,36,0.00,OVC,OVC,0.00,WeatherDisplay:10.37,2013-05-17 20:28:00,
2013-05-17 15:34:00,84.6,53.9,29.86,SSE,153,4.0,4.0,35,0.00,OVC,OVC,0.00,WeatherDisplay:10.37,2013-05-17 20:34:00,
2013-05-17 15:39:00,84.6,54.7,29.86,SSE,148,6.9,6.9,36,0.00,OVC,OVC,0.00,WeatherDisplay:10.37,2013-05-17 20:39:00,
2013-05-17 15:44:00,85.3,54.5,29.86,SE,139,3.5,3.5,35,0.00,OVC,OVC,0.00,WeatherDisplay:10.37,2013-05-17 20:44:00,
2013-05-17 15:49:00,86.1,55.2,29.86,SE,142,5.8,5.8,35,0.00,OVC,OVC,0.00,WeatherDisplay:10.37,2013-05-17 20:49:00,
2013-05-17 15:54:00,86.7,55.0,29.85,SSE,163,10.4,10.4,34,0.00,OVC,OVC,0.00,WeatherDisplay:10.37,2013-05-17 20:54:00,
2013-05-17 16:00:00,86.4,55.5,29.85,SE,138,2.0,2.0,35,0.00,OVC,OVC,0.00,WeatherDisplay:10.37,2013-05-17 21:00:00,
2013-05-17 16:05:00,86.3,55.4,29.85,SE,137,3.5,3.5,35,0.00,OVC,OVC,0.00,WeatherDisplay:10.37,2013-05-17 21:05:00,
2013-05-17 16:10:00,85.8,55.8,29.85,SE,129,5.8,5.8,36,0.00,OVC,OVC,0.00,WeatherDisplay:10.37,2013-05-17 21:10:00,
2013-05-17 16:15:00,85.5,55.5,29.85,SSE,153,11.5,11.5,36,0.00,OVC,OVC,0.00,WeatherDisplay:10.37,2013-05-17 21:15:00,
2013-05-17 16:20:00,85.3,56.8,29.85,SSE,152,3.5,3.5,38,0.00,OVC,OVC,0.00,WeatherDisplay:10.37,2013-05-17 21:20:00,
2013-05-17 16:26:00,85.6,55.6,29.85,SE,145,6.0,6.0,36,0.00,OVC,OVC,0.00,WeatherDisplay:10.37,2013-05-17 21:26:00,
2013-05-17 16:31:00,85.6,55.6,29.85,SSE,149,9.2,9.2,36,0.00,OVC,OVC,0.00,WeatherDisplay:10.37,2013-05-17 21:31:00,
2013-05-17 16:36:00,85.7,55.7,29.85,SE,140,5.8,5.8,36,0.00,OVC,OVC,0.00,WeatherDisplay:10.37,2013-05-17 21:36:00,
2013-05-17 16:41:00,85.7,56.4,29.84,SSE,156,2.3,2.3,37,0.00,OVC,OVC,0.00,WeatherDisplay:10.37,2013-05-17 21:41:00,
2013-05-17 16:47:00,85.7,56.4,29.85,South,182,4.6,4.6,37,0.00,OVC,OVC,0.00,WeatherDisplay:10.37,2013-05-17 21:47:00,
2013-05-17 16:52:00,85.8,55.8,29.85,ESE,108,3.5,3.5,36,0.00,OVC,OVC,0.00,WeatherDisplay:10.37,2013-05-17 21:52:00,
2013-05-17 16:57:00,85.7,55.7,29.84,SSE,159,12.7,12.7,36,0.00,OVC,OVC,0.00,WeatherDisplay:10.37,2013-05-17 21:57:00,
2013-05-17 17:02:00,85.4,56.2,29.85,SSE,161,8.1,8.1,37,0.00,OVC,OVC,0.00,WeatherDisplay:10.37,2013-05-17 22:02:00,
2013-05-17 17:07:00,84.6,56.2,29.84,SSE,156,6.9,6.9,38,0.00,OVC,OVC,0.00,WeatherDisplay:10.37,2013-05-17 22:07:00,
2013-05-17 17:12:00,84.3,56.6,29.84,SSE,158,9.2,9.2,39,0.00,OVC,OVC,0.00,WeatherDisplay:10.37,2013-05-17 22:12:00,
2013-05-17 17:18:00,84.3,55.9,29.85,SE,146,5.8,5.8,38,0.00,OVC,OVC,0.00,WeatherDisplay:10.37,2013-05-17 22:18:00,
2013-05-17 17:23:00,84.1,55.7,29.85,SE,142,9.2,9.2,38,0.00,OVC,OVC,0.00,WeatherDisplay:10.37,2013-05-17 22:23:00,
2013-05-17 17:28:00,83.4,55.8,29.85,SSE,148,9.2,9.2,39,0.00,OVC,OVC,0.00,WeatherDisplay:10.37,2013-05-17 22:28:00,
2013-05-17 17:33:00,83.0,56.2,29.85,South,176,9.2,9.2,40,0.00,OVC,OVC,0.00,WeatherDisplay:10.37,2013-05-17 22:33:00,
2013-05-17 17:38:00,83.1,56.3,29.85,South,172,6.9,6.9,40,0.00,OVC,OVC,0.00,WeatherDisplay:10.37,2013-05-17 22:38:00,
2013-05-17 17:43:00,83.1,56.3,29.85,South,182,9.0,9.0,40,0.00,OVC,OVC,0.00,WeatherDisplay:10.37,2013-05-17 22:43:00,
2013-05-17 17:49:00,82.7,55.2,29.85,SE,141,3.5,3.5,39,0.00,OVC,OVC,0.00,WeatherDisplay:10.37,2013-05-17 22:49:00,
2013-05-17 17:54:00,81.9,55.9,29.85,South,172,4.6,4.6,41,0.00,OVC,OVC,0.00,WeatherDisplay:10.37,2013-05-17 22:54:00,
2013-05-17 17:59:00,81.4,55.4,29.85,South,174,9.2,9.2,41,0.00,OVC,OVC,0.00,WeatherDisplay:10.37,2013-05-17 22:59:00,
2013-05-17 18:04:00,80.7,55.5,29.85,SSE,165,6.9,6.9,42,0.00,OVC,OVC,0.00,WeatherDisplay:10.37,2013-05-17 23:04:00,
2013-05-17 18:09:00,80.2,55.7,29.85,South,170,1.2,1.2,43,0.00,OVC,OVC,0.00,WeatherDisplay:10.37,2013-05-17 23:09:00,
2013-05-17 18:14:00,79.9,56.0,29.86,South,171,8.1,8.1,44,0.00,OVC,OVC,0.00,WeatherDisplay:10.37,2013-05-17 23:14:00,
2013-05-17 18:19:00,79.7,55.9,29.86,SSE,148,5.8,5.8,44,0.00,OVC,OVC,0.00,WeatherDisplay:10.37,2013-05-17 23:19:00,
2013-05-17 18:24:00,79.4,55.6,29.86,South,173,5.8,5.8,44,0.00,OVC,OVC,0.00,WeatherDisplay:10.37,2013-05-17 23:24:00,
2013-05-17 18:29:00,79.2,55.4,29.86,SSE,160,9.2,9.2,44,0.00,OVC,OVC,0.00,WeatherDisplay:10.37,2013-05-17 23:29:00,
2013-05-17 18:35:00,79.0,55.2,29.86,SSE,150,6.9,6.9,44,0.00,OVC,OVC,0.00,WeatherDisplay:10.37,2013-05-17 23:35:00,
2013-05-17 18:40:00,78.8,55.0,29.86,South,169,3.5,3.5,44,0.00,OVC,OVC,0.00,WeatherDisplay:10.37,2013-05-17 23:40:00,
2013-05-17 18:45:00,78.7,55.0,29.86,SE,143,5.8,5.8,44,0.00,OVC,OVC,0.00,WeatherDisplay:10.37,2013-05-17 23:45:00,
2013-05-17 18:50:00,78.7,55.6,29.86,SSE,148,4.6,4.6,45,0.00,OVC,OVC,0.00,WeatherDisplay:10.37,2013-05-17 23:50:00,
2013-05-17 18:55:00,78.7,55.6,29.86,SSE,153,4.6,4.6,45,0.00,OVC,OVC,0.00,WeatherDisplay:10.37,2013-05-17 23:55:00,
2013-05-17 19:01:00,78.9,55.8,29.86,SSE,153,3.5,3.5,45,0.00,OVC,OVC,0.00,WeatherDisplay:10.37,2013-05-18 00:01:00,
2013-05-17 19:06:00,78.9,55.8,29.87,SSE,166,3.5,3.5,45,0.00,OVC,OVC,0.00,WeatherDisplay:10.37,2013-05-18 00:06:00,
2013-05-17 19:11:00,78.7,56.2,29.87,East,101,3.5,3.5,46,0.00,OVC,OVC,0.00,WeatherDisplay:10.37,2013-05-18 00:11:00,
2013-05-17 19:16:00,78.3,56.4,29.87,SSE,166,3.5,3.5,47,0.00,OVC,OVC,0.00,WeatherDisplay:10.37,2013-05-18 00:16:00,
2013-05-17 19:21:00,78.2,56.9,29.87,SSE,152,1.2,0.0,48,0.00,OVC,OVC,0.00,WeatherDisplay:10.37,2013-05-18 00:21:00,
2013-05-17 19:27:00,78.1,56.8,29.87,SSE,153,8.1,8.1,48,0.00,OVC,OVC,0.00,WeatherDisplay:10.37,2013-05-18 00:27:00,
2013-05-17 19:32:00,77.9,56.6,29.87,SSE,155,4.6,4.6,48,0.00,OVC,OVC,0.00,WeatherDisplay:10.37,2013-05-18 00:32:00,
2013-05-17 19:37:00,77.5,56.3,29.87,SSE,155,2.3,2.3,48,0.00,OVC,OVC,0.00,WeatherDisplay:10.37,2013-05-18 00:37:00,
2013-05-17 19:43:00,77.2,56.6,29.87,SSE,151,5.8,5.8,49,0.00,OVC,OVC,0.00,WeatherDisplay:10.37,2013-05-18 00:43:00,
2013-05-17 19:48:00,77.0,56.4,29.87,SSE,162,1.2,0.0,49,0.00,OVC,OVC,0.00,WeatherDisplay:10.37,2013-05-18 00:48:00,
2013-05-17 19:53:00,76.8,56.2,29.87,South,171,5.8,5.8,49,0.00,OVC,OVC,0.00,WeatherDisplay:10.37,2013-05-18 00:53:00,
2013-05-17 19:58:00,76.6,56.6,29.87,SSE,157,3.5,3.5,50,0.00,OVC,OVC,0.00,WeatherDisplay:10.37,2013-05-18 00:58:00,
2013-05-17 20:03:00,76.4,56.4,29.87,SSE,155,1.2,0.0,50,0.00,OVC,OVC,0.00,WeatherDisplay:10.37,2013-05-18 01:03:00,
2013-05-17 20:08:00,76.2,56.7,29.88,SSE,155,2.3,2.3,51,0.00,OVC,OVC,0.00,WeatherDisplay:10.37,2013-05-18 01:08:00,
2013-05-17 20:14:00,75.9,56.5,29.88,SSE,152,3.5,3.5,51,0.00,OVC,OVC,0.00,WeatherDisplay:10.37,2013-05-18 01:14:00,
2013-05-17 20:19:00,75.7,56.3,29.88,SSE,152,3.5,3.5,51,0.00,OVC,OVC,0.00,WeatherDisplay:10.37,2013-05-18 01:19:00,
2013-05-17 20:24:00,75.4,56.5,29.88,SSE,153,3.5,3.5,52,0.00,OVC,OVC,0.00,WeatherDisplay:10.37,2013-05-18 01:24:00,
2013-05-17 20:29:00,75.1,56.8,29.88,SSE,153,1.2,1.2,53,0.00,OVC,OVC,0.00,WeatherDisplay:10.37,2013-05-18 01:29:00,
2013-05-17 20:35:00,74.9,57.1,29.88,SSE,153,0.0,0.0,54,0.00,OVC,OVC,0.00,WeatherDisplay:10.37,2013-05-18 01:35:00,
2013-05-17 20:40:00,74.6,56.9,29.88,SSE,153,0.0,0.0,54,0.00,OVC,OVC,0.00,WeatherDisplay:10.37,2013-05-18 01:40:00,
2013-05-17 20:45:00,74.2,57.0,29.88,SSE,153,0.0,0.0,55,0.00,OVC,OVC,0.00,WeatherDisplay:10.37,2013-05-18 01:45:00,
2013-05-17 20:50:00,73.8,57.1,29.88,SSE,153,0.0,0.0,56,0.00,OVC,OVC,0.00,WeatherDisplay:10.37,2013-05-18 01:50:00,
2013-05-17 20:55:00,73.4,56.7,29.88,SSE,153,0.0,0.0,56,0.00,OVC,OVC,0.00,WeatherDisplay:10.37,2013-05-18 01:55:00,
2013-05-17 21:00:00,73.1,57.0,29.88,SSE,153,0.0,0.0,57,0.00,OVC,OVC,0.00,WeatherDisplay:10.37,2013-05-18 02:00:00,
2013-05-17 21:05:00,72.8,57.2,29.88,SSE,153,0.0,0.0,58,0.00,OVC,OVC,0.00,WeatherDisplay:10.37,2013-05-18 02:05:00,
2013-05-17 21:10:00,72.5,56.9,29.87,SSE,153,3.5,3.5,58,0.00,OVC,OVC,0.00,WeatherDisplay:10.37,2013-05-18 02:10:00,
2013-05-17 21:16:00,72.2,57.1,29.88,SSE,153,3.0,3.0,59,0.00,OVC,OVC,0.00,WeatherDisplay:10.37,2013-05-18 02:16:00,
2013-05-17 21:21:00,72.1,57.0,29.88,SSE,153,2.3,2.3,59,0.00,OVC,OVC,0.00,WeatherDisplay:10.37,2013-05-18 02:21:00,
2013-05-17 21:26:00,71.9,57.3,29.87,SSE,153,0.0,0.0,60,0.00,OVC,OVC,0.00,WeatherDisplay:10.37,2013-05-18 02:26:00,
2013-05-17 21:31:00,71.7,57.1,29.87,SSE,148,3.5,3.5,60,0.00,OVC,OVC,0.00,WeatherDisplay:10.37,2013-05-18 02:31:00,
2013-05-17 21:36:00,71.6,57.0,29.87,SSE,161,3.5,3.5,60,0.00,OVC,OVC,0.00,WeatherDisplay:10.37,2013-05-18 02:36:00,
2013-05-17 21:41:00,71.4,56.8,29.88,SSE,161,3.0,3.0,60,0.00,OVC,OVC,0.00,WeatherDisplay:10.37,2013-05-18 02:41:00,
2013-05-17 21:47:00,71.3,56.7,29.88,SSE,161,3.5,3.5,60,0.00,OVC,OVC,0.00,WeatherDisplay:10.37,2013-05-18 02:47:00,
2013-05-17 21:52:00,71.2,56.6,29.88,SSE,147,3.5,3.5,60,0.00,OVC,OVC,0.00,WeatherDisplay:10.37,2013-05-18 02:52:00,
2013-05-17 21:57:00,71.0,56.4,29.88,SSE,160,1.2,0.0,60,0.00,OVC,OVC,0.00,WeatherDisplay:10.37,2013-05-18 02:57:00,
2013-05-17 22:03:00,70.9,56.3,29.88,SSE,167,4.0,4.0,60,0.00,OVC,OVC,0.00,WeatherDisplay:10.37,2013-05-18 03:03:00,
2013-05-17 22:08:00,70.8,56.7,29.88,SSE,167,1.2,1.2,61,0.00,OVC,OVC,0.00,WeatherDisplay:10.37,2013-05-18 03:08:00,
2013-05-17 22:13:00,70.6,56.5,29.88,SSE,165,0.0,0.0,61,0.00,OVC,OVC,0.00,WeatherDisplay:10.37,2013-05-18 03:13:00,
2013-05-17 22:18:00,70.5,56.9,29.89,SSE,165,0.0,0.0,62,0.00,OVC,OVC,0.00,WeatherDisplay:10.37,2013-05-18 03:18:00,
2013-05-17 22:23:00,70.4,56.8,29.89,SSE,165,1.0,1.0,62,0.00,OVC,OVC,0.00,WeatherDisplay:10.37,2013-05-18 03:23:00,
2013-05-17 22:28:00,70.2,56.6,29.89,SSE,165,2.3,2.3,62,0.00,OVC,OVC,0.00,WeatherDisplay:10.37,2013-05-18 03:28:00,
2013-05-17 22:33:00,69.9,56.7,29.89,SSE,164,1.0,1.0,63,0.00,OVC,OVC,0.00,WeatherDisplay:10.37,2013-05-18 03:33:00,
2013-05-17 22:39:00,69.7,56.5,29.89,SSE,164,2.3,0.0,63,0.00,OVC,OVC,0.00,WeatherDisplay:10.37,2013-05-18 03:39:00,
2013-05-17 22:44:00,69.5,56.3,29.89,SSE,164,3.5,3.5,63,0.00,OVC,OVC,0.00,WeatherDisplay:10.37,2013-05-18 03:44:00,
2013-05-17 22:49:00,69.4,56.7,29.90,SSE,164,0.0,0.0,64,0.00,OVC,OVC,0.00,WeatherDisplay:10.37,2013-05-18 03:49:00,
2013-05-17 22:54:00,69.4,56.7,29.90,SSE,164,0.0,0.0,64,0.00,OVC,OVC,0.00,WeatherDisplay:10.37,2013-05-18 03:54:00,
2013-05-17 22:59:00,69.2,56.5,29.90,SSE,164,0.0,0.0,64,0.00,OVC,OVC,0.00,WeatherDisplay:10.37,2013-05-18 03:59:00,
2013-05-17 23:01:00,69.2,56.5,29.90,SSE,164,0.0,0.0,64,0.00,OVC,OVC,0.00,WeatherDisplay:10.37,2013-05-18 04:01:00,
2013-05-17 23:02:00,69.1,56.4,29.90,SSE,164,0.0,0.0,64,0.00,OVC,OVC,0.00,WeatherDisplay:10.37,2013-05-18 04:02:00,
2013-05-17 23:03:00,69.1,56.4,29.90,SSE,164,0.0,0.0,64,0.00,OVC,OVC,0.00,WeatherDisplay:10.37,2013-05-18 04:03:00,
2013-05-17 23:08:00,68.9,56.6,29.90,SSE,164,0.0,0.0,65,0.00,OVC,OVC,0.00,WeatherDisplay:10.37,2013-05-18 04:08:00,
2013-05-17 23:10:00,68.9,56.6,29.90,SSE,164,0.0,0.0,65,0.00,OVC,OVC,0.00,WeatherDisplay:10.37,2013-05-18 04:10:00,
2013-05-17 23:15:00,68.7,56.5,29.91,SSE,164,0.0,0.0,65,0.00,OVC,OVC,0.00,WeatherDisplay:10.37,2013-05-18 04:15:00,
2013-05-17 23:20:00,68.5,56.7,29.90,SSE,164,2.3,2.3,66,0.00,OVC,OVC,0.00,WeatherDisplay:10.37,2013-05-18 04:20:00,
2013-05-17 23:25:00,68.3,56.5,29.91,SSE,164,0.0,0.0,66,0.00,OVC,OVC,0.00,WeatherDisplay:10.37,2013-05-18 04:25:00,
2013-05-17 23:30:00,68.1,56.3,29.91,SSE,164,0.0,0.0,66,0.00,OVC,OVC,0.00,WeatherDisplay:10.37,2013-05-18 04:30:00,
2013-05-17 23:36:00,68.0,56.6,29.91,SSE,164,0.0,0.0,67,0.00,OVC,OVC,0.00,WeatherDisplay:10.37,2013-05-18 04:36:00,
2013-05-17 23:41:00,67.9,56.5,29.91,SSE,164,0.0,0.0,67,0.00,OVC,OVC,0.00,WeatherDisplay:10.37,2013-05-18 04:41:00,
2013-05-17 23:46:00,67.7,56.3,29.91,SSE,164,0.0,0.0,67,0.00,OVC,OVC,0.00,WeatherDisplay:10.37,2013-05-18 04:46:00,
2013-05-17 23:51:00,67.6,56.7,29.91,SSE,164,0.0,0.0,68,0.00,OVC,OVC,0.00,WeatherDisplay:10.37,2013-05-18 04:51:00,
2013-05-17 23:57:00,67.4,56.9,29.92,SSE,164,0.0,0.0,69,0.00,OVC,OVC,0.00,WeatherDisplay:10.37,2013-05-18 04:57:00,